TimeEDT,TemperatureF,Dew PointF,Humidity,Sea Level PressureIn,VisibilityMPH,Wind Direction,Wind SpeedMPH,Gust SpeedMPH,PrecipitationIn,Events,Conditions,WindDirDegrees,DateUTC
12:53 AM,64.0,44.1,48,29.78,10.0,NNW,6.9,-,N/A,,Clear,330,2013-05-16 04:53:00
1:53 AM,64.0,43.0,46,29.80,10.0,NW,3.5,-,N/A,,Clear,310,2013-05-16 05:53:00
2:53 AM,57.9,44.1,60,29.80,10.0,SW,3.5,-,N/A,,Clear,220,2013-05-16 06:53:00
3:53 AM,55.0,44.1,67,29.81,10.0,Calm,Calm,-,N/A,,Clear,0,2013-05-16 07:53:00
4:53 AM,52.0,44.1,74,29.83,10.0,WSW,6.9,-,N/A,,Clear,240,2013-05-16 08:53:00
5:53 AM,52.0,43.0,71,29.85,10.0,SW,6.9,-,N/A,,Clear,230,2013-05-16 09:53:00
6:53 AM,55.0,44.1,67,29.85,10.0,WSW,4.6,-,N/A,,Clear,250,2013-05-16 10:53:00
7:53 AM,62.1,46.0,56,29.87,10.0,West,3.5,-,N/A,,Clear,260,2013-05-16 11:53:00
8:53 AM,69.1,46.0,44,29.88,10.0,WNW,8.1,-,N/A,,Clear,290,2013-05-16 12:53:00
9:53 AM,73.9,45.0,35,29.88,10.0,WNW,9.2,-,N/A,,Clear,300,2013-05-16 13:53:00
10:53 AM,78.1,46.0,32,29.88,10.0,Variable,6.9,-,N/A,,Clear,0,2013-05-16 14:53:00
11:53 AM,82.0,46.0,28,29.88,10.0,WNW,12.7,-,N/A,,Clear,300,2013-05-16 15:53:00
12:53 PM,84.0,43.0,24,29.87,10.0,West,19.6,26.5,N/A,,Clear,280,2013-05-16 16:53:00
1:53 PM,84.0,42.1,23,29.86,10.0,NW,12.7,20.7,N/A,,Clear,310,2013-05-16 17:53:00
2:53 PM,84.9,43.0,23,29.87,10.0,NW,6.9,-,N/A,,Clear,320,2013-05-16 18:53:00
3:53 PM,84.9,43.0,23,29.87,10.0,NNW,5.8,-,N/A,,Partly Cloudy,330,2013-05-16 19:53:00
4:53 PM,84.9,44.1,24,29.86,10.0,NNW,12.7,19.6,N/A,,Clear,340,2013-05-16 20:53:00
6:53 PM,79.0,45.0,30,29.88,10.0,North,8.1,-,N/A,,Clear,10,2013-05-16 22:53:00
7:53 PM,78.1,48.9,36,29.89,10.0,North,5.8,-,N/A,,Partly Cloudy,10,2013-05-16 23:53:00
8:53 PM,73.0,44.1,35,29.91,10.0,East,9.2,-,N/A,,Scattered Clouds,80,2013-05-17 00:53:00
9:53 PM,66.9,42.1,40,29.95,10.0,ENE,8.1,-,N/A,,Scattered Clouds,70,2013-05-17 01:53:00
10:53 PM,61.0,37.0,41,29.99,10.0,NE,11.5,-,N/A,,Clear,50,2013-05-17 02:53:00
11:53 PM,57.0,37.0,47,30.02,10.0,NE,9.2,-,N/A,,Clear,40,2013-05-17 03:53:00